Content
SEND FEEDBACK

Daily
Averages
Monthly
Summary
United States of America

EARTH CITY, MISSOURI


Home > North America > United States > Missouri
Elevation: 476 feet     Latitude: 38 46N     Longitude: 090 30W

WEATHER
 
SELECT A DAY
Number of Records: 207,355;   Date Range: 1/1/95 - 11/21/14
 
SHARE

PRINT THIS DATA

[ ← Previous Day ]
WEATHER ALMANAC - MARCH 16, 2013
[ Next Day → ]
[ °C ]   °F
Weather ElementAverageHighLow
Temperature45.8 °F62.6 °F (2:51 am)39.2 °F (10:45 pm)
Dewpoint37.1 °F45 °F (5:51 am)33.8 °F (10:45 pm)
Humidity72.4 %83 % (9:51 pm)48 % (2:51 am)
Barometer29.93 in30.08 in (10:51 pm)29.65 in (2:51 am)
Wind Speed10.4 mph20.7 mph (8:51 am)
Wind Gust24.2 mph (7:51 am)
Weather ElementAverage
Visibility6.2 mi
Wind DirectionSSW (207.1 °)

Weather ElementTotal
Precipitation0.11 in
Heating Degree Days14.1 (Base 65)
Growing Degree Days0.9 (Base 50)
Averaged from 28 records on March 16, 2013
WEATHER CONDITIONS BREAKOUT
WIND DIRECTION BREAKOUT
WEATHER BY HOUR - MARCH 16, 2013
[ °C ]   °F
Local TimeTemperatureDewpointHumidityBarometerVisibilityWind DirectionWind SpeedGust SpeedPrecipitationEventsConditions
2:51 AM62.6 °F42.8 °F48 %29.65 in10.0 miWest (260°)5.8 mphScattered Clouds
3:51 AM61.0 °F43.0 °F52 %29.65 in10.0 miWest (280°)10.4 mphScattered Clouds
4:51 AM52.0 °F42.1 °F69 %29.67 in10.0 miWNW (300°)10.4 mphScattered Clouds
5:51 AM55.9 °F45.0 °F67 %29.71 in10.0 miWNW (290°)12.7 mphScattered Clouds
6:51 AM52.0 °F43.0 °F71 %29.76 in10.0 miNW (310°)10.4 mphScattered Clouds
7:51 AM48.0 °F41.0 °F77 %29.81 in7.0 miNNW (330°)17.3 mph24.2 mphMostly Cloudy
8:28 AM46.4 °F39.2 °F76 %29.86 in5.0 miNNW (330°)16.1 mph23.0 mphHaze
8:51 AM45.0 °F37.9 °F76 %29.88 in5.0 miNW (320°)20.7 mph24.2 mphHaze
8:58 AM44.6 °F37.4 °F76 %29.88 in4.0 miNNW (330°)16.1 mph24.2 mphHaze
9:51 AM42.1 °F36.0 °F79 %29.93 in3.0 miNNW (340°)15.0 mph24.2 mphHaze
10:34 AM42.8 °F35.6 °F76 %29.94 in4.0 miNNW (340°)11.5 mphHaze
10:51 AM44.1 °F36.0 °F73 %29.94 in4.0 miNNW (330°)10.4 mphHaze
11:32 AM44.6 °F35.6 °F71 %29.96 in4.0 miNorth (360°)9.2 mphHaze
11:51 AM45.0 °F36.0 °F71 %29.97 in4.0 miNNW (340°)11.5 mphHaze
12:47 PM44.6 °F35.6 °F71 %29.99 in5.0 miNorth (350°)12.7 mphHaze
12:51 PM46.0 °F35.1 °F66 %30.00 in5.0 miNorth (360°)13.8 mphHaze
1:51 PM46.0 °F35.1 °F66 %29.99 in6.0 miNorth (10°)15.0 mphHaze
2:51 PM46.0 °F35.1 °F66 %30.01 in6.0 miNorth (360°)10.4 mphHaze
3:51 PM45.0 °F34.0 °F65 %30.00 in6.0 miNorth (10°)13.8 mphHaze
5:51 PM43.0 °F35.1 °F74 %30.03 in5.0 miNorth (10°)8.1 mph0.01 inRainLight Rain
6:51 PM42.1 °F35.1 °F76 %30.04 in4.0 miNNE (30°)8.1 mph0.01 inRainLight Rain
7:12 PM42.8 °F35.6 °F76 %30.03 in5.0 miNNE (20°)6.9 mph0.01 inRainLight Rain
7:51 PM41.0 °F35.1 °F79 %30.05 in5.0 miNE (50°)5.8 mph0.02 inRainLight Rain
8:51 PM41.0 °F35.1 °F79 %30.06 in5.0 miNE (40°)4.6 mph0.01 inRainLight Rain
9:51 PM39.9 °F35.1 °F83 %30.06 in5.0 miNE (50°)6.9 mph0.03 inRainLight Rain
10:45 PM39.2 °F33.8 °F81 %30.06 in8.0 miCalm0.01 inOvercast
10:51 PM39.9 °F35.1 °F83 %30.08 in8.0 miCalm0.01 inOvercast
11:51 PM39.9 °F34.0 °F79 %30.07 in10.0 miNE (50°)8.1 mphOvercast
Hourly data recorded from KSTL, located miles away from Earth City, Missouri







STORIES FROM OUR PARTNERS